Location: Gebenbach
(49.5378°N, 11.8735°E)
Time: 11:26:43
(UTC+00:00)

Cosmos 1777 Rocket - Pass Details

Date: 29 October 2020
Orbit: 759 x 775 km, 74.0° (Epoch: 24 November)

Event Time Altitude Azimuth Distance (km) Brightness Sun altitude
Rises 18:31:01 0° 335° (NNW) 3,230 7.7 -25.8°
Reaches altitude 10° 18:33:24 10° 335° (NNW) 2,301 6.9 -26.1°
Maximum altitude 18:38:37 85° 249° (WSW) 770 3.9 -27.0°
Enters shadow 18:38:38 85° 246° (WSW) 770 3.9 -27.0°
